DateTimeUTC,F1_A11,F1_S11,BsB_S11,BsG_S11,BsR_S11,BbsB_S11,BbsG_S11,BbsR_S11,BaB_A11,BaG_A11,BaR_A11,Tu_S11,T_S11,Uu_S11,U_S11,P_S11,T1_A11
2021-08-28T19:00:00Z,00000200,20000000,,,,,,,-000.01,0000.45,-000.19,20.6,27.2,06.8,04.6,0668.5,31.2
2021-08-28T19:01:00Z,00000200,20000000,,,,,,,-000.13,-000.21,0000.07,20.5,27.2,06.9,04.6,0668.5,31.2
2021-08-28T19:02:00Z,00000200,20000000,,,,,,,-000.06,-000.37,-000.26,20.5,27.2,06.9,04.6,0668.5,31.2
2021-08-28T19:03:00Z,00000200,60000000,,,,,,,0000.44,0000.27,0000.16,20.5,27.2,06.9,04.6,0668.5,31.2
2021-08-28T19:04:00Z,00000200,40000000,0000.52,0000.09,-000.09,0000.71,-000.16,0000.08,0000.09,0000.09,0000.19,20.7,27.1,06.9,04.7,0669.4,31.2
2021-08-28T19:05:00Z,00000200,00000000,0001.04,0000.33,0000.20,-000.18,0000.26,0000.14,0000.19,0000.10,0000.54,20.7,27.0,07.0,04.8,0669.4,31.2
2021-08-28T19:06:00Z,00000200,00000000,0000.42,-000.15,-000.05,-000.18,0000.27,-000.10,-000.03,0000.46,-000.05,20.7,27.0,07.0,04.8,0669.4,31.2
2021-08-28T19:07:00Z,00000200,00000000,0000.65,0000.24,0000.09,0000.21,0000.04,-000.19,-000.08,-000.03,-000.28,20.7,27.0,06.9,04.8,0669.4,31.2
2021-08-28T19:08:00Z,00000200,00000000,0000.22,0000.00,-000.19,-000.02,0000.01,0000.25,-000.11,-000.25,-000.03,20.7,27.0,07.1,04.9,0669.4,31.2
2021-08-28T19:09:00Z,00000200,00000000,-000.04,-000.00,0000.54,0000.17,0000.10,0000.33,0000.48,0000.14,0000.29,20.7,27.0,07.2,04.9,0669.4,31.2
2021-08-28T19:10:00Z,00000200,00000000,0000.23,0000.42,0000.06,-000.10,0000.24,0000.01,-000.17,0000.12,-000.28,20.7,27.0,07.2,04.9,0669.4,31.2
2021-08-28T19:11:00Z,00000200,00000000,-000.75,0000.24,-000.10,-000.03,0000.15,0000.04,0000.23,0000.55,0000.60,20.7,27.0,07.2,05.0,0669.4,31.2
2021-08-28T19:12:00Z,00000200,00000000,0000.01,0000.40,0000.05,0000.15,0000.37,-000.12,-000.20,-000.51,-000.14,20.7,27.0,07.2,05.0,0669.4,31.2
2021-08-28T19:13:00Z,00000200,00000000,0000.36,0000.09,-000.07,0000.53,0000.03,-000.16,0000.10,0000.32,-000.43,20.7,27.0,07.2,04.9,0669.4,31.2
2021-08-28T19:14:00Z,00000200,00000000,0000.56,0000.47,0000.36,0000.07,0000.32,0000.23,0000.09,-000.55,0000.24,20.7,27.0,07.2,04.9,0669.4,31.2
2021-08-28T19:15:00Z,00000200,00000000,0000.89,0000.41,0000.38,0000.44,0000.17,0000.09,0000.04,0000.24,-000.12,20.7,27.0,07.2,04.9,0669.4,31.2
2021-08-28T19:16:00Z,00000200,00000000,0000.36,0000.50,-000.08,0000.55,0000.06,-000.22,-000.35,-000.17,-000.25,20.7,27.0,07.2,04.9,0669.4,31.2
2021-08-28T19:17:00Z,00000200,00000000,0000.34,0000.42,0000.20,0000.80,0000.28,0000.26,0000.08,0000.15,0000.44,20.7,27.0,07.1,04.9,0669.4,31.2
2021-08-28T19:18:00Z,00000200,00000000,0000.56,0000.09,-000.28,0000.70,0000.35,0000.26,0000.02,0000.10,-000.04,20.7,26.9,07.1,04.9,0669.4,31.2
2021-08-28T19:19:00Z,00000200,00000000,0001.31,0000.81,0000.24,0000.41,0000.21,0000.02,-000.25,-000.34,-000.55,20.7,26.9,07.1,04.9,0669.4,31.2
2021-08-28T19:20:00Z,00000200,00000000,0001.05,0000.42,-000.18,-000.80,0000.08,0000.20,0000.06,-000.27,0000.20,20.7,26.9,07.0,04.8,0669.3,31.2
2021-08-28T19:21:00Z,00000200,00000000,0000.27,0000.76,0000.30,0000.18,0000.32,0000.11,0000.02,-000.18,-000.11,20.7,26.9,07.0,04.8,0669.4,31.2
2021-08-28T19:22:00Z,00000200,00000000,0000.92,0000.78,0000.41,-000.12,0000.42,-000.14,-000.20,0000.32,0000.02,20.7,27.0,07.0,04.8,0669.4,31.2
2021-08-28T19:23:00Z,00000200,00000000,0000.62,0000.34,0000.54,0000.23,0000.28,0000.19,0000.16,0000.19,0000.25,20.7,26.9,07.0,04.8,0669.3,31.2
2021-08-28T19:24:00Z,00000200,00000000,0000.96,0000.27,0000.28,0000.30,0000.06,0000.26,-000.20,-000.32,-000.47,20.7,27.0,07.0,04.8,0669.4,31.2
2021-08-28T19:25:00Z,00000200,00000000,0000.55,0000.58,0000.44,0000.08,-000.05,-000.04,0000.56,0000.52,0000.45,20.7,26.9,07.0,04.8,0669.3,31.2
2021-08-28T19:26:00Z,00000200,00000000,0000.86,0000.23,0000.40,-000.07,0000.53,0000.14,-000.34,-000.32,-000.28,20.7,26.9,07.1,04.9,0669.3,31.2
2021-08-28T19:27:00Z,00000200,00000000,0000.24,0000.87,0000.17,0000.14,0000.36,0000.24,0000.12,0000.04,0000.48,20.7,26.9,07.0,04.8,0669.3,31.2
2021-08-28T19:28:00Z,00000200,00000000,0000.84,0000.55,0000.34,0000.33,0000.36,0000.14,-000.63,-000.30,-000.30,20.7,26.9,07.1,04.9,0669.3,31.2
2021-08-28T19:29:00Z,00000200,00000000,0000.93,0000.46,0000.36,0000.28,0000.35,0000.40,0000.47,0000.39,0000.50,20.7,26.9,07.0,04.8,0669.3,31.2
2021-08-28T19:30:00Z,00000200,00000000,0001.35,0000.42,-000.12,-000.12,0000.21,-000.12,0000.10,-000.03,-000.18,20.7,26.9,07.0,04.8,0669.3,31.2
2021-08-28T19:31:00Z,00000200,00000000,0001.33,0000.70,0000.58,0000.60,0000.15,0000.15,-000.12,-000.16,-000.22,20.7,26.9,07.0,04.8,0669.3,31.2
2021-08-28T19:32:00Z,00000200,00000000,0000.95,0000.45,-000.06,0001.28,0000.13,-000.03,-000.10,0000.41,0000.32,20.7,26.9,07.1,04.9,0669.3,31.2
2021-08-28T19:33:00Z,00000200,00000000,0000.45,0000.60,0000.46,-000.01,0000.35,0000.08,0000.19,-000.21,0000.19,20.7,26.9,07.1,04.9,0669.3,31.2
2021-08-28T19:34:00Z,00000200,00000000,0001.19,0000.61,0000.68,0000.04,0000.48,0000.35,-000.05,-000.34,-000.19,20.7,26.9,07.1,04.9,0669.3,31.2
2021-08-28T19:35:00Z,00000200,00000000,0000.94,0000.72,0000.16,0000.63,0000.60,0000.05,-000.16,0000.23,0000.23,20.7,26.9,07.1,04.9,0669.4,31.2
2021-08-28T19:36:00Z,00000200,00000000,0000.75,0000.45,0000.23,-000.09,0000.03,0000.01,0000.08,0000.12,-000.35,20.7,26.9,07.1,04.9,0669.3,31.2
2021-08-28T19:37:00Z,00000200,00000000,0000.20,0000.82,0000.20,0000.64,0000.26,0000.05,0000.02,-000.07,0000.17,20.7,26.9,07.2,04.9,0669.3,31.2
2021-08-28T19:38:00Z,00000200,00000000,0000.55,0000.63,0000.16,0000.34,0000.15,0000.43,0000.27,0000.15,0000.48,20.7,26.9,07.1,04.9,0669.3,31.2
2021-08-28T19:39:00Z,00000200,00000000,0000.55,0000.96,0000.59,0000.41,0000.22,0000.18,-000.10,-000.22,-000.33,20.7,26.9,07.0,04.8,0669.3,31.2
2021-08-28T19:40:00Z,00000200,00000000,0000.93,0000.80,-000.11,-000.05,0000.19,-000.28,-000.42,-000.19,-000.14,20.7,26.9,07.2,04.9,0669.3,31.2
2021-08-28T19:41:00Z,00000200,00000000,0001.22,0000.94,0000.28,0000.11,-000.12,-000.08,0000.77,0000.34,0000.41,20.7,26.9,07.1,04.9,0669.3,31.2
2021-08-28T19:42:00Z,00000200,00000000,0001.16,0000.68,0000.56,0000.40,0000.11,0000.24,-000.50,0000.09,0000.11,20.7,26.9,07.2,04.9,0669.3,31.2
2021-08-28T19:43:00Z,00000200,00000000,0001.07,0001.07,0000.67,0000.11,0000.16,0000.13,-000.25,0000.07,0000.02,20.7,26.9,07.3,05.0,0669.3,31.2
2021-08-28T19:44:00Z,00000200,00000000,0000.60,0000.84,0000.30,0000.50,0000.14,-000.25,0000.19,-000.14,0000.11,20.7,26.9,07.2,05.0,0669.3,31.2
2021-08-28T19:45:00Z,00000200,00000000,0001.36,0000.86,0000.52,0000.60,0000.40,0000.45,0000.42,0000.06,0000.14,20.7,26.9,07.3,05.0,0669.3,31.2
2021-08-28T19:46:00Z,00000200,00000000,0000.99,0000.91,0000.60,0000.26,0000.43,0000.25,0000.25,0000.17,0000.06,20.7,26.9,07.4,05.1,0669.2,31.2
2021-08-28T19:47:00Z,00000200,00000000,0001.17,0000.81,0000.77,0000.08,0000.37,0000.47,-000.18,0000.12,-000.14,20.7,26.9,07.4,05.1,0669.3,31.2
2021-08-28T19:48:00Z,00000200,00000000,0001.80,0000.81,0000.58,0000.28,0000.03,0000.05,-000.09,-000.03,0000.32,20.7,26.9,07.4,05.1,0669.3,31.2
2021-08-28T19:49:00Z,00000200,00000000,0001.88,0000.27,0000.64,0000.18,0000.05,0000.09,-000.13,0000.11,0000.03,20.7,26.9,07.3,05.1,0669.3,31.2
2021-08-28T19:50:00Z,00000200,00000000,0001.94,0000.74,0000.29,0000.41,0000.53,0000.50,0000.06,-000.15,0000.21,20.7,26.9,07.4,05.1,0669.3,31.2
2021-08-28T19:51:00Z,00000200,00000000,0001.28,0001.04,0000.57,0000.50,0000.14,0000.03,0000.12,-000.07,-000.35,20.7,26.8,07.3,05.0,0669.3,31.2
2021-08-28T19:52:00Z,00000200,00000000,0000.77,0000.85,0000.58,-000.26,0000.31,0000.34,0000.02,0000.11,0000.21,20.7,26.8,07.3,05.1,0669.3,31.2
2021-08-28T19:53:00Z,00000200,00000000,0001.12,0000.89,0000.56,0000.39,0000.29,0000.39,-000.22,-000.07,0000.19,20.7,26.8,07.4,05.1,0669.3,31.2
2021-08-28T19:54:00Z,00000200,00000000,0001.11,0001.03,0000.46,-000.00,0000.20,0000.28,-000.33,-000.27,0000.09,20.6,26.8,07.3,05.0,0669.2,31.2
2021-08-28T19:55:00Z,00000200,00010000,0001.18,0001.07,0000.64,0000.64,0000.44,0000.24,-000.11,0000.08,-000.14,20.6,26.8,07.3,05.0,0669.2,31.2
2021-08-28T19:56:00Z,00000200,00000000,0001.37,0000.64,0000.61,0001.00,0000.24,0000.28,0000.06,-000.09,-000.14,20.6,26.8,07.3,05.0,0669.2,31.2
2021-08-28T19:57:00Z,00000200,40000000,,,,,,,-000.14,0000.05,-000.10,20.6,26.8,07.0,04.8,0669.2,31.2
2021-08-28T19:58:00Z,00000200,60000000,,,,,,,-000.10,-000.33,0000.38,20.4,26.9,07.2,04.9,0668.2,31.2
2021-08-28T19:59:00Z,00000200,20000000,,,,,,,0000.15,0000.23,-000.06,20.4,27.0,07.2,04.8,0668.2,31.2
